1501131600.05,20406,20.06,73182.0,5.59,-24.93,-25.91,0,*77
1501131601.33,20407,20.13,73184.3,5.57,-24.87,-25.75,0,*77
1501131602.57,20408,20.13,73184.3,5.57,-25.45,-26.39,0,*7C
1501131603.8,20409,20.13,73182.8,5.59,-24.61,-25.45,0,*7C
1501131605.03,20410,20.13,73184.8,5.59,-24.25,-25.13,0,*77
1501131606.29,20411,20.13,73186.8,5.57,-24.25,-25.09,0,*73
1501131607.52,20412,20.13,73186.8,5.59,-24.15,-25.09,0,*7D
1501131608.77,20413,20.13,73186.0,5.59,-24.15,-25.29,0,*7E
1501131609.97,20414,20.13,73184.8,5.59,-24.57,-25.39,0,*7E
1501131611.17,20415,20.06,73182.3,5.59,-24.77,-25.87,0,*78
1501131612.36,20416,20.13,73184.3,5.59,-24.93,-25.87,0,*71
1501131613.58,20417,20.13,73184.8,5.59,-24.87,-25.87,0,*75
1501131614.81,20418,20.13,73184.0,5.59,-24.87,-25.61,0,*72
1501131616.03,20419,20.13,73186.5,5.59,-24.61,-25.45,0,*7D
1501131617.28,20420,20.13,73184.3,5.57,-24.57,-25.45,0,*7C
1501131618.51,20421,20.13,73186.3,5.59,-24.77,-25.71,0,*76
1501131619.74,20422,20.13,73184.8,5.59,-24.71,-25.87,0,*7A
1501131620.97,20423,20.13,73184.5,5.59,-24.61,-25.55,0,*75
1501131622.18,20424,20.13,73186.5,5.59,-24.77,-25.61,0,*72
1501131623.42,20425,20.13,73186.5,5.59,-24.71,-25.61,0,*75
1501131624.65,20426,20.13,73186.0,5.59,-24.57,-25.45,0,*74
1501131625.89,20427,20.13,73184.0,5.59,-24.71,-25.61,0,*77
1501131627.07,20428,20.13,73186.5,5.59,-24.93,-25.87,0,*7C
1501131628.35,20429,20.13,73186.0,5.61,-24.67,-25.55,0,*72
1501131629.58,20430,20.13,73186.0,5.63,-24.67,-25.49,0,*75
1501131630.79,20431,20.13,73184.3,5.61,-25.09,-26.07,0,*76
1501131632.06,20432,20.13,73184.8,5.61,-24.87,-25.81,0,*7F
1501131633.31,20433,20.13,73184.3,5.61,-24.25,-25.23,0,*7E
1501131634.56,20434,20.13,73186.8,5.61,-24.05,-25.03,0,*79
1501131635.76,20435,20.13,73186.3,5.63,-24.05,-24.93,0,*72
1501131636.98,20436,20.13,73186.0,5.63,-24.25,-25.23,0,*79
1501131638.27,20437,20.13,73186.0,5.61,-24.71,-25.71,0,*7C
1501131639.54,20438,20.13,73184.5,5.61,-24.67,-25.55,0,*72
1501131640.81,20439,20.13,73182.5,5.61,-24.11,-25.03,0,*71
1501131642.03,20440,20.13,73184.3,5.63,-23.69,-24.57,0,*75
1501131643.22,20441,20.13,73184.8,5.63,-23.59,-24.51,0,*71
1501131644.44,20442,20.13,73182.3,5.67,-23.85,-24.77,0,*73
1501131645.69,20443,20.13,73184.3,5.69,-23.99,-24.93,0,*7B
1501131646.91,20444,20.13,73186.3,5.67,-24.15,-25.13,0,*78
1501131648.1,20445,20.13,73184.0,5.67,-24.05,-24.97,0,*75
1501131649.35,20446,20.13,73186.8,5.69,-24.41,-25.23,0,*76
1501131650.58,20447,20.13,73186.5,5.71,-24.25,-25.09,0,*74
1501131651.81,20448,20.13,73184.0,5.67,-24.31,-25.29,0,*7B
1501131653.08,20449,20.13,73184.0,5.69,-23.99,-24.83,0,*70
1501131654.32,20450,20.13,73184.0,5.69,-23.99,-24.93,0,*79
1501131655.56,20451,20.06,73180.0,5.69,-24.15,-25.13,0,*72
1501131656.76,20452,20.13,73184.5,5.71,-24.31,-25.23,0,*7D
1501131657.98,20453,20.13,73186.5,5.71,-24.11,-24.97,0,*70
1501131659.2,20454,20.13,73186.5,5.71,-23.95,-24.77,0,*72
1501131660.43,20455,20.13,73186.3,5.71,-24.25,-25.13,0,*7C
1501131661.65,20456,20.13,73182.0,5.73,-23.89,-24.77,0,*7F
1501131662.89,20457,20.13,73184.0,5.71,-23.65,-24.41,0,*7B
1501131664.15,20458,20.13,73182.5,5.73,-23.65,-24.41,0,*76
1501131665.4,20459,20.13,73184.8,5.73,-23.59,-24.41,0,*78
1501131666.62,20460,20.13,73184.3,5.75,-23.75,-24.67,0,*7E
1501131667.87,20461,20.13,73184.5,5.77,-23.69,-24.67,0,*70
1501131669.14,20462,20.13,73186.8,5.77,-23.99,-24.87,0,*72
1501131670.39,20463,20.13,73184.3,5.77,-23.99,-25.19,0,*75
1501131671.66,20464,20.13,73182.5,5.77,-24.21,-25.03,0,*7D
1501131672.89,20465,20.06,73182.8,5.75,-24.21,-25.23,0,*7C
1501131674.13,20466,20.06,73180.8,5.77,-23.99,-24.97,0,*77
1501131675.38,20467,20.13,73184.8,5.77,-24.05,-25.03,0,*78
1501131676.63,20468,20.13,73182.3,5.77,-24.21,-25.13,0,*70
1501131677.87,20469,20.13,73184.8,5.77,-23.89,-24.87,0,*78
1501131679.09,20470,20.13,73186.0,5.77,-23.59,-24.47,0,*71
1501131680.31,20471,20.13,73186.8,5.79,-23.79,-24.83,0,*74
1501131681.52,20472,20.13,73186.8,5.79,-24.47,-25.39,0,*7D
1501131682.77,20473,20.13,73184.8,5.81,-24.41,-25.39,0,*7D
1501131684.01,20474,20.13,73182.5,5.79,-23.53,-24.41,0,*77
1501131685.28,20475,20.13,73186.0,5.81,-23.33,-24.25,0,*75
1501131686.55,20476,20.13,73186.5,5.81,-23.53,-24.41,0,*72
1501131687.79,20477,20.13,73184.8,5.81,-23.49,-24.31,0,*7F
1501131689.03,20478,20.13,73184.8,5.85,-23.39,-24.21,0,*72
1501131690.27,20479,20.13,73182.5,5.85,-23.09,-24.11,0,*73
1501131691.55,20480,20.13,73188.0,5.85,-23.29,-24.21,0,*74
1501131692.81,20481,20.13,73184.0,5.89,-23.69,-24.67,0,*7F
1501131694.07,20482,20.13,73186.5,5.89,-23.53,-24.47,0,*77
1501131695.32,20483,20.06,73182.3,5.89,-23.75,-24.83,0,*7A
1501131696.56,20484,20.13,73184.8,5.91,-23.99,-24.93,0,*77
1501131697.8,20485,20.06,73184.3,5.91,-24.25,-25.23,0,*7C
1501131699.04,20486,20.06,73184.5,5.91,-23.69,-24.67,0,*71
1501131700.27,20487,20.13,73184.5,5.91,-23.69,-24.61,0,*76
1501131701.52,20488,20.13,73184.3,5.91,-23.29,-24.15,0,*7E
1501131702.77,20489,20.06,73182.5,5.91,-23.19,-24.11,0,*78
1501131704.02,20490,20.06,73184.8,5.93,-23.69,-24.77,0,*75
1501131705.27,20491,20.13,73186.8,5.93,-24.47,-25.39,0,*74
1501131706.53,20492,20.06,73182.8,5.93,-24.31,-25.29,0,*77
1501131707.79,20493,20.13,73186.0,5.93,-23.85,-24.77,0,*74
1501131709.08,20494,20.13,73186.8,5.93,-23.49,-24.25,0,*74
1501131710.33,20495,20.06,73182.3,5.93,-23.39,-24.41,0,*70
1501131711.59,20496,20.06,73184.0,5.95,-23.33,-24.25,0,*7D
1501131712.82,20497,20.13,73184.5,5.95,-23.33,-24.35,0,*7D
1501131714.05,20498,20.06,73182.5,5.97,-23.59,-24.47,0,*79
1501131715.29,20499,20.13,73186.3,5.99,-23.75,-24.71,0,*7D
1501131716.54,20500,20.13,73186.3,5.97,-23.65,-24.57,0,*77
1501131717.8,20501,20.13,73186.3,5.99,-23.99,-25.03,0,*7B
1501131719.04,20502,20.13,73186.8,5.99,-24.31,-25.29,0,*75
1501131720.27,20503,20.13,73186.0,5.97,-23.89,-24.93,0,*7E
1501131721.47,20504,20.13,73184.5,5.99,-23.39,-24.31,0,*74
1501131722.69,20505,20.13,73184.8,5.99,-23.29,-24.35,0,*70
1501131723.93,20506,20.13,73186.0,5.99,-23.53,-24.51,0,*7C
1501131725.14,20507,20.13,73184.0,5.99,-24.05,-24.97,0,*73
1501131726.37,20508,20.06,73184.0,5.99,-23.89,-24.83,0,*7A
1501131727.65,20509,20.06,73180.5,6.01,-23.95,-24.83,0,*74
1501131728.93,20510,20.06,73186.8,6.01,-23.95,-24.83,0,*7C
1501131730.21,20511,20.06,73184.3,6.01,-23.85,-24.83,0,*7C
1501131731.46,20512,20.06,73184.0,6.03,-23.99,-24.83,0,*70
1501131732.74,20513,20.06,73184.5,6.01,-23.85,-24.83,0,*7E
1501131733.98,20514,20.06,73180.8,6.03,-23.53,-24.51,0,*7F
1501131735.23,20515,20.13,73186.3,6.03,-23.65,-24.67,0,*7E
1501131736.46,20516,20.13,73186.5,6.03,-24.15,-25.09,0,*74
1501131737.7,20517,20.06,73184.0,6.03,-23.99,-24.97,0,*70
1501131738.95,20518,20.06,73180.8,6.05,-23.49,-24.57,0,*78
1501131740.21,20519,20.06,73184.5,6.05,-24.21,-25.23,0,*72
1501131741.47,20520,20.13,73186.8,6.05,-24.11,-25.09,0,*73
1501131742.74,20521,20.06,73186.0,6.05,-24.47,-25.55,0,*78
1501131743.98,20522,20.13,73186.8,6.03,-24.25,-25.13,0,*7B
1501131745.23,20523,20.06,73186.8,6.03,-23.69,-24.67,0,*77
1501131746.44,20524,20.06,73186.5,6.03,-24.47,-25.35,0,*7D
1501131747.67,20525,20.06,73186.0,6.03,-24.51,-25.61,0,*7A
1501131748.9,20526,20.06,73186.0,6.03,-24.11,-24.97,0,*75
1501131750.14,20527,20.13,73186.0,6.03,-23.99,-25.09,0,*75
1501131751.35,20528,20.06,73186.0,6.03,-24.31,-25.35,0,*70
1501131752.58,20529,20.06,73186.0,6.05,-23.89,-24.77,0,*74
1501131753.84,20530,20.06,73184.8,6.05,-24.05,-25.03,0,*7D
1501131755.1,20531,20.06,73186.8,6.05,-24.05,-24.87,0,*71
1501131756.35,20532,20.06,73186.3,6.05,-23.49,-24.57,0,*70
1501131757.61,20533,20.13,73188.5,6.07,-23.29,-24.25,0,*70
1501131758.81,20534,20.06,73186.5,6.07,-23.39,-24.35,0,*77
1501131760.07,20535,20.06,73186.5,6.07,-23.23,-24.25,0,*7C
1501131761.34,20536,20.13,73188.0,6.13,-23.03,-23.95,0,*74
1501131762.57,20537,20.06,73186.8,6.09,-23.09,-23.89,0,*79
1501131763.84,20538,20.06,73186.0,6.13,-23.23,-24.15,0,*77
1501131765.07,20539,20.06,73186.8,6.13,-22.97,-23.79,0,*75
1501131766.32,20540,20.06,73186.5,6.13,-23.09,-23.99,0,*73
1501131767.55,20541,20.06,73186.0,6.15,-23.09,-24.11,0,*73
1501131768.78,20542,20.06,73182.3,6.15,-23.09,-23.99,0,*77
1501131770.01,20543,20.06,73186.0,6.17,-22.93,-23.79,0,*78
1501131771.24,20544,20.06,73186.0,6.19,-22.97,-23.99,0,*7B
1501131772.52,20545,20.06,73184.5,6.23,-23.65,-24.83,0,*73
1501131773.75,20546,20.06,73186.8,6.19,-23.99,-24.97,0,*7F
1501131775.0,20547,20.06,73186.5,6.21,-23.99,-25.03,0,*79
1501131776.23,20548,20.06,73184.8,6.21,-23.99,-24.97,0,*7A
1501131777.48,20549,20.06,73186.8,6.21,-23.85,-24.83,0,*73
1501131778.74,20550,20.13,73190.3,6.19,-23.85,-24.71,0,*7D
1501131780.0,20551,20.06,73186.8,6.23,-23.49,-24.51,0,*77
1501131781.22,20552,20.06,73184.8,6.21,-23.59,-24.67,0,*72
1501131782.45,20553,20.06,73186.3,6.21,-23.85,-24.97,0,*7D
1501131783.73,20554,20.06,73186.0,6.23,-24.15,-25.29,0,*72
1501131784.94,20555,20.06,73186.3,6.25,-23.79,-24.93,0,*78
1501131786.19,20556,20.06,73184.3,6.23,-23.79,-24.83,0,*7C
1501131787.45,20557,20.06,73184.8,6.23,-23.79,-24.83,0,*7D
1501131788.71,20558,20.06,73188.3,6.23,-23.99,-25.19,0,*7E
1501131789.99,20559,20.06,73184.8,6.23,-24.21,-25.45,0,*72
1501131791.25,20560,20.06,73186.3,6.23,-24.05,-25.29,0,*74
1501131792.5,20561,20.06,73188.3,6.23,-23.69,-24.77,0,*72
1501131793.72,20562,20.06,73188.5,6.25,-23.79,-24.77,0,*76
1501131794.95,20563,20.06,73188.3,6.25,-23.53,-24.61,0,*78
1501131796.19,20564,20.06,73186.8,6.25,-23.53,-24.61,0,*7F
1501131797.42,20565,20.06,73184.3,6.25,-23.85,-25.19,0,*7B
1501131798.68,20566,20.06,73188.0,6.25,-24.21,-25.45,0,*78
1501131799.91,20567,20.06,73184.5,6.25,-24.31,-25.49,0,*74
1501131801.14,20568,20.06,73184.5,6.25,-24.15,-25.19,0,*78
1501131802.38,20569,20.06,73184.0,6.25,-24.31,-25.45,0,*76
1501131803.59,20570,20.06,73186.5,6.25,-24.35,-25.61,0,*7C
1501131804.81,20571,20.06,73188.3,6.25,-24.35,-25.49,0,*77
1501131806.07,20572,20.13,73190.5,6.23,-24.35,-25.45,0,*7E
1501131807.33,20573,20.06,73186.8,6.23,-24.67,-25.65,0,*7A
1501131808.57,20574,20.06,73186.3,6.23,-24.61,-25.65,0,*7B
1501131809.78,20575,20.06,73190.3,6.25,-24.61,-25.65,0,*7C
1501131811.05,20576,20.06,73186.8,6.23,-24.21,-25.35,0,*78
1501131812.27,20577,20.06,73188.5,6.25,-24.47,-25.49,0,*74
1501131813.5,20578,20.06,73184.8,6.21,-24.83,-25.87,0,*75
1501131814.74,20579,20.06,73188.5,6.19,-24.35,-25.55,0,*7D
1501131815.97,20580,20.06,73188.3,6.21,-24.11,-25.35,0,*70
1501131817.22,20581,20.06,73186.3,6.21,-23.99,-24.87,0,*7E
1501131818.47,20582,20.06,73190.3,6.21,-23.99,-24.83,0,*79
1501131819.7,20583,20.06,73186.8,6.21,-24.11,-25.23,0,*74
1501131820.96,20584,20.06,73188.3,6.25,-24.15,-25.29,0,*79
1501131822.22,20585,20.06,73188.3,6.23,-24.05,-25.03,0,*77
1501131823.45,20586,20.06,73188.3,6.23,-24.05,-25.19,0,*7F
1501131824.69,20587,20.06,73190.8,6.25,-24.05,-25.29,0,*7B
1501131825.95,20588,20.06,73188.0,6.23,-24.05,-25.03,0,*7A
1501131827.19,20589,20.06,73184.3,6.25,-24.05,-25.03,0,*7D
1501131828.45,20590,20.06,73186.8,6.23,-24.05,-25.29,0,*7B
1501131829.67,20591,20.06,73186.3,6.25,-24.47,-25.49,0,*7C
1501131830.91,20592,20.06,73190.0,6.25,-24.31,-25.29,0,*78
1501131832.17,20593,20.06,73190.8,6.23,-23.85,-24.77,0,*7D
1501131833.38,20594,20.06,73186.0,6.25,-23.79,-24.77,0,*7F
1501131834.62,20595,20.06,73186.8,6.25,-23.99,-24.97,0,*7E
1501131835.85,20596,20.06,73186.3,6.25,-24.21,-25.35,0,*70
1501131837.09,20597,20.06,73186.5,6.25,-24.61,-25.81,0,*7A
1501131838.32,20598,20.06,73184.3,6.25,-24.77,-25.81,0,*72
1501131839.55,20599,20.06,73188.3,6.25,-24.51,-25.61,0,*79
1501131840.77,20600,20.06,73186.5,6.25,-24.51,-25.49,0,*70
1501131842.03,20601,20.06,73186.8,6.25,-24.67,-25.75,0,*7B
1501131843.25,20602,20.06,73186.8,6.25,-24.47,-25.49,0,*75
1501131844.54,20603,20.06,73186.8,6.23,-24.83,-25.97,0,*79
1501131845.77,20604,20.06,73190.0,6.25,-24.47,-25.49,0,*73
1501131847.01,20605,20.06,73184.5,6.25,-24.51,-25.45,0,*79
1501131848.24,20606,20.06,73188.5,6.23,-24.77,-25.65,0,*7A
1501131849.45,20607,20.06,73186.0,6.25,-24.77,-25.91,0,*76
1501131850.68,20608,20.06,73188.3,6.25,-25.19,-26.33,0,*7B
1501131851.92,20609,20.06,73186.3,6.25,-25.13,-26.33,0,*70
1501131853.15,20610,20.06,73184.5,6.23,-24.97,-26.07,0,*74
1501131854.41,20611,20.06,73184.8,6.23,-24.47,-25.45,0,*7D
1501131855.67,20612,20.06,73186.8,6.23,-24.15,-25.19,0,*70
1501131856.95,20613,20.06,73184.3,6.23,-24.15,-25.29,0,*72
1501131858.18,20614,20.06,73190.8,6.23,-24.05,-25.19,0,*77
1501131859.4,20615,20.06,73186.0,6.25,-24.47,-25.49,0,*73
1501131860.64,20616,20.06,73188.5,6.23,-24.77,-25.91,0,*70
1501131861.9,20617,20.06,73184.5,6.25,-24.83,-26.17,0,*71
1501131863.13,20618,20.06,73186.0,6.25,-25.81,-27.13,0,*78
1501131864.41,20619,20.06,73184.3,6.23,-26.17,-27.35,0,*77
1501131865.67,20620,20.06,73188.5,6.21,-25.55,-26.81,0,*74
1501131866.91,20621,20.06,73190.8,6.21,-24.51,-25.55,0,*7A
1501131868.12,20622,20.06,73186.8,6.21,-24.57,-25.65,0,*7C
1501131869.36,20623,20.06,73184.3,6.21,-24.41,-25.49,0,*74
1501131870.57,20624,20.06,73186.5,6.21,-24.35,-25.49,0,*70
1501131871.8,20625,20.06,73190.5,6.21,-24.67,-25.65,0,*78
1501131873.07,20626,20.06,73190.0,6.21,-24.71,-25.71,0,*79
1501131874.33,20627,20.06,73188.5,6.21,-25.03,-26.13,0,*7B
1501131875.52,20628,20.06,73190.0,6.21,-25.39,-26.49,0,*72
1501131876.75,20629,20.06,73188.0,6.21,-25.81,-26.87,0,*72
1501131877.95,20630,20.06,73190.0,6.19,-25.35,-26.39,0,*7B
1501131879.18,20631,20.06,73186.8,6.21,-25.19,-26.33,0,*75
1501131880.41,20632,20.06,73188.0,6.21,-25.19,-26.33,0,*76
1501131881.64,20633,20.06,73186.0,6.19,-24.57,-25.55,0,*74
1501131882.9,20634,20.06,73186.8,6.19,-24.87,-25.81,0,*77
1501131884.14,20635,20.06,73188.5,6.21,-24.83,-26.03,0,*70
1501131885.37,20636,20.06,73186.3,6.19,-24.57,-25.55,0,*71
1501131886.61,20637,20.06,73188.5,6.19,-24.57,-25.55,0,*70
1501131887.85,20638,20.06,73188.3,6.21,-24.67,-25.65,0,*74
1501131889.1,20639,20.06,73190.8,6.19,-24.67,-25.81,0,*74
1501131890.34,20640,20.06,73186.8,6.21,-24.35,-25.55,0,*7F
1501131891.57,20641,20.06,73186.0,6.21,-24.11,-25.35,0,*7E
1501131892.78,20642,20.06,73188.5,6.21,-24.35,-25.39,0,*77
1501131894.01,20643,20.06,73188.0,6.21,-24.21,-25.39,0,*73
1501131895.27,20644,20.06,73186.3,6.23,-23.85,-24.77,0,*74
1501131896.54,20645,20.06,73186.8,6.23,-23.69,-24.67,0,*76
1501131897.8,20646,20.06,73190.3,6.23,-23.65,-24.51,0,*7C
1501131899.02,20647,20.06,73186.0,6.25,-23.69,-24.61,0,*74
1501131900.25,20648,20.06,73186.3,6.25,-23.69,-24.61,0,*7B
1501131901.49,20649,20.06,73190.0,6.27,-23.75,-24.61,0,*75
1501131902.71,20650,20.06,73186.0,6.29,-23.49,-24.47,0,*78
1501131903.97,20651,20.06,73186.0,6.27,-23.79,-24.87,0,*78
1501131905.23,20652,20.06,73188.3,6.29,-24.25,-25.29,0,*7E
1501131906.51,20653,20.06,73186.8,6.31,-23.85,-24.67,0,*70
1501131907.78,20654,20.06,73190.3,6.31,-23.85,-24.83,0,*7D
1501131909.02,20655,20.06,73188.8,6.31,-24.05,-25.09,0,*70
1501131910.27,20656,20.06,73194.5,6.31,-23.89,-24.87,0,*77
1501131911.55,20657,20.06,73188.0,6.35,-24.15,-25.29,0,*75
1501131912.83,20658,20.06,73186.8,6.35,-24.15,-25.29,0,*7A
1501131914.08,20659,20.06,73184.3,6.35,-24.15,-25.19,0,*78
1501131915.31,20660,20.06,73186.3,6.35,-24.05,-25.19,0,*73
1501131916.56,20661,20.06,73192.0,6.35,-23.89,-25.03,0,*7A
1501131917.8,20662,20.06,73190.8,6.35,-23.79,-24.77,0,*74
1501131919.05,20663,20.06,73188.8,6.35,-24.21,-25.19,0,*76
1501131920.33,20664,20.06,73188.8,6.35,-23.85,-25.03,0,*73
1501131921.58,20665,20.06,73188.8,6.37,-23.85,-24.83,0,*79
1501131922.8,20666,20.06,73190.3,6.37,-23.69,-24.51,0,*77
1501131924.01,20667,20.06,73186.5,6.41,-24.51,-25.39,0,*74
1501131925.24,20668,20.06,73188.5,6.37,-24.87,-26.03,0,*7B
1501131926.47,20669,20.06,73186.5,6.39,-24.77,-25.87,0,*74
1501131927.72,20670,20.06,73190.3,6.39,-25.09,-26.13,0,*7A
1501131928.91,20671,20.06,73190.8,6.37,-25.35,-26.49,0,*75
1501131930.16,20672,20.06,73188.0,6.37,-24.67,-25.81,0,*77
1501131931.41,20673,20.06,73188.8,6.37,-24.67,-25.75,0,*7D
1501131932.63,20674,20.06,73186.8,6.37,-25.19,-26.33,0,*73
1501131933.91,20675,20.06,73188.8,6.35,-25.03,-26.17,0,*7D
1501131935.19,20676,20.06,73188.0,6.35,-24.67,-25.81,0,*71
1501131936.44,20677,20.06,73188.5,6.31,-24.83,-25.87,0,*78
1501131937.73,20678,20.06,73186.3,6.35,-24.67,-25.75,0,*74
1501131938.97,20679,20.06,73190.8,6.35,-25.45,-26.49,0,*78
1501131940.23,20680,20.06,73190.5,6.31,-25.97,-27.07,0,*7E
1501131941.47,20681,20.06,73188.8,6.31,-26.03,-27.03,0,*75
1501131942.7,20682,20.06,73188.5,6.29,-25.71,-26.61,0,*7C
1501131943.94,20683,20.06,73190.8,6.29,-25.45,-26.55,0,*7D
1501131945.19,20684,20.06,73192.3,6.27,-25.09,-26.13,0,*7E
1501131946.45,20685,20.06,73188.8,6.27,-25.29,-26.45,0,*7E
1501131947.72,20686,20.06,73190.3,6.27,-25.45,-26.55,0,*76
1501131948.94,20687,20.06,73188.0,6.27,-24.93,-26.23,0,*7C
1501131950.17,20688,20.06,73188.3,6.27,-24.93,-26.03,0,*71
1501131951.43,20689,20.06,73192.3,6.25,-24.83,-25.81,0,*7A
1501131952.66,20690,20.06,73188.8,6.25,-25.29,-26.45,0,*78
1501131953.92,20691,20.06,73188.8,6.25,-25.75,-26.81,0,*78
1501131955.17,20692,20.06,73190.0,6.23,-25.75,-26.65,0,*77
1501131956.43,20693,20.06,73188.0,6.23,-25.65,-26.77,0,*74
1501131957.69,20694,20.06,73188.0,6.23,-25.65,-26.77,0,*73
1501131958.94,20695,20.06,73188.8,6.23,-25.35,-26.33,0,*77
1501131960.15,20696,20.06,73192.8,6.21,-25.23,-26.39,0,*7B
1501131961.37,20697,20.06,73188.3,6.21,-25.39,-26.55,0,*7B
1501131962.56,20698,20.06,73188.3,6.21,-25.19,-26.23,0,*77
1501131963.79,20699,20.0,73186.8,6.21,-25.55,-26.65,0,*7C
1501131965.05,20700,20.06,73190.3,6.19,-25.81,-26.71,0,*7A
1501131966.25,20701,20.06,73186.8,6.19,-25.65,-26.65,0,*74
1501131967.49,20702,20.06,73188.5,6.19,-25.87,-26.97,0,*76
1501131968.7,20703,20.06,73190.5,6.19,-25.49,-26.65,0,*78
1501131969.96,20704,20.06,73188.5,6.17,-26.17,-27.29,0,*70
1501131971.18,20705,20.06,73186.5,6.15,-26.23,-27.45,0,*7E
1501131972.4,20706,20.06,73188.0,6.15,-26.23,-27.35,0,*7A
1501131973.67,20707,20.06,73186.3,6.13,-26.29,-27.45,0,*70
1501131974.92,20708,20.06,73188.5,6.13,-26.23,-27.35,0,*72
1501131976.2,20709,20.06,73188.0,6.13,-25.75,-26.81,0,*7D
1501131977.43,20710,20.06,73184.8,6.09,-25.39,-26.49,0,*72
1501131978.66,20711,20.06,73186.0,6.09,-25.39,-26.49,0,*73
1501131979.88,20712,20.06,73184.3,6.09,-25.35,-26.49,0,*7C
1501131981.11,20713,20.06,73188.8,6.09,-25.35,-26.49,0,*7D
1501131982.36,20714,20.06,73186.8,6.09,-25.49,-26.55,0,*7C
1501131983.63,20715,20.06,73184.5,6.07,-25.55,-26.71,0,*78
1501131984.86,20716,20.06,73186.0,6.07,-25.45,-26.39,0,*76
1501131986.09,20717,20.06,73190.5,6.07,-25.49,-26.55,0,*71
1501131987.35,20718,20.06,73190.5,6.09,-25.19,-26.33,0,*75
1501131988.58,20719,20.06,73186.3,6.07,-25.49,-26.55,0,*7F
1501131989.81,20720,20.0,73186.3,6.05,-25.09,-26.23,0,*72
1501131991.06,20721,20.06,73188.3,6.05,-24.87,-25.87,0,*79
1501131992.26,20722,20.06,73186.0,6.07,-25.35,-26.49,0,*71
1501131993.49,20723,20.06,73188.0,6.05,-25.39,-26.45,0,*72
1501131994.73,20724,20.06,73190.3,6.07,-25.13,-26.29,0,*75
1501131995.97,20725,20.06,73188.0,6.07,-24.51,-25.55,0,*7B
1501131997.23,20726,20.06,73188.3,6.05,-24.87,-25.87,0,*7E
1501131998.44,20727,20.0,73184.0,6.07,-24.97,-26.03,0,*73
1501131999.69,20728,20.06,73188.0,6.05,-25.29,-26.23,0,*78
1501132000.95,20729,20.06,73188.3,6.07,-25.03,-26.13,0,*70
1501132002.18,20730,20.06,73188.0,6.05,-25.09,-26.07,0,*75
1501132003.47,20731,20.06,73190.5,6.05,-24.41,-25.55,0,*7D
1501132004.71,20732,20.06,73188.8,6.07,-24.57,-25.71,0,*7D
1501132005.96,20733,20.0,73188.8,6.07,-24.51,-25.55,0,*7C
1501132007.21,20734,20.06,73190.8,6.09,-24.87,-25.87,0,*71
1501132008.49,20735,20.06,73190.8,6.07,-24.71,-25.71,0,*7E
1501132009.72,20736,20.06,73190.0,6.07,-25.19,-26.33,0,*77
1501132010.93,20737,20.06,73188.3,6.07,-25.19,-26.39,0,*7C
1501132012.16,20738,20.0,73188.3,6.07,-24.97,-26.17,0,*78
1501132013.37,20739,20.06,73194.0,6.07,-25.19,-26.39,0,*72
1501132014.62,20740,20.0,73190.5,6.07,-24.71,-25.87,0,*75
1501132015.86,20741,20.06,73190.0,6.07,-24.41,-25.65,0,*7B
1501132017.12,20742,20.06,73194.0,6.07,-25.03,-26.33,0,*7F
1501132018.33,20743,20.06,73188.8,6.07,-24.97,-26.03,0,*71
1501132019.57,20744,20.0,73190.0,6.07,-24.97,-25.97,0,*78
1501132020.81,20745,20.0,73190.5,6.07,-24.71,-25.87,0,*70
1501132022.09,20746,20.06,73194.5,6.07,-24.71,-25.71,0,*7A
1501132023.37,20747,20.0,73190.0,6.07,-24.71,-25.71,0,*7B
1501132024.61,20748,20.06,73188.8,6.09,-24.51,-25.49,0,*73
1501132025.88,20749,20.0,73190.0,6.09,-24.25,-25.19,0,*74
1501132027.12,20750,20.0,73188.5,6.09,-24.57,-25.65,0,*72
1501132028.33,20751,20.0,73190.3,6.07,-24.57,-25.65,0,*7D
1501132029.55,20752,20.06,73192.3,6.07,-24.35,-25.49,0,*74
1501132030.8,20753,20.0,73190.3,6.13,-24.47,-25.61,0,*7F
1501132032.06,20754,20.0,73190.5,6.09,-24.21,-25.19,0,*7C
1501132033.3,20755,20.06,73190.5,6.13,-24.35,-25.49,0,*76
1501132034.56,20756,20.0,73190.5,6.09,-25.13,-26.33,0,*75
1501132035.81,20757,20.0,73188.8,6.09,-25.35,-26.55,0,*70
1501132037.03,20758,20.06,73188.8,6.09,-25.35,-26.49,0,*72
1501132038.32,20759,20.06,73192.0,6.09,-25.03,-26.17,0,*7D
1501132039.58,20760,20.0,73190.5,6.09,-25.13,-26.29,0,*7B
1501132040.86,20761,20.06,73188.8,6.09,-24.67,-25.81,0,*79
1501132042.1,20762,20.0,73188.5,6.09,-25.19,-26.39,0,*72
1501132043.33,20763,20.06,73190.5,6.07,-25.39,-26.71,0,*73
1501132044.56,20764,20.0,73188.0,6.07,-25.49,-26.71,0,*73
1501132045.81,20765,20.06,73190.5,6.05,-25.39,-26.71,0,*77
1501132047.1,20766,20.0,73190.3,6.05,-25.55,-26.77,0,*78
1501132048.36,20767,20.0,73188.0,6.05,-25.55,-26.87,0,*76
1501132049.64,20768,20.0,73188.8,6.05,-25.55,-26.77,0,*76
1501132050.9,20769,20.0,73188.8,6.01,-25.49,-26.81,0,*77
1501132052.18,20770,20.0,73188.8,6.01,-25.75,-26.97,0,*77
1501132053.44,20771,20.0,73188.3,6.01,-25.75,-27.07,0,*7E
1501132054.67,20772,20.0,73188.8,6.01,-26.07,-27.29,0,*77
1501132055.9,20773,20.0,73192.0,5.97,-25.23,-26.49,0,*78
1501132057.13,20774,20.0,73188.0,5.99,-24.57,-25.97,0,*73
1501132058.39,20775,20.0,73188.8,5.99,-24.87,-26.13,0,*70
1501132059.59,20776,20.0,73190.8,5.99,-25.13,-26.49,0,*70
1501132060.84,20777,20.0,73190.5,5.97,-25.45,-26.87,0,*7E
1501132062.11,20778,20.0,73190.0,5.97,-26.03,-27.35,0,*78
1501132063.36,20779,20.0,73192.8,5.97,-25.87,-27.19,0,*78
1501132064.59,20780,20.0,73194.0,5.95,-25.87,-27.19,0,*7C
1501132065.86,20781,20.0,73190.8,5.93,-25.49,-26.97,0,*7E
1501132067.12,20782,20.0,73192.8,5.93,-25.49,-26.93,0,*79
1501132068.38,20783,20.0,73188.8,5.93,-25.49,-26.97,0,*7C
1501132069.61,20784,20.0,73190.0,5.93,-25.91,-27.29,0,*7A
1501132070.87,20785,20.06,73194.8,5.93,-25.39,-26.81,0,*7A
1501132072.12,20786,20.0,73188.0,5.91,-25.45,-26.81,0,*70
1501132073.36,20787,20.0,73190.0,5.89,-25.87,-27.29,0,*75
1501132074.62,20788,20.0,73188.3,5.91,-25.75,-27.23,0,*74
1501132075.84,20789,20.0,73192.0,5.89,-25.49,-27.13,0,*70
1501132077.1,20790,20.0,73190.0,5.89,-26.03,-27.45,0,*76
1501132078.36,20791,20.0,73188.8,5.89,-25.71,-27.29,0,*7B
1501132079.61,20792,20.0,73190.3,5.83,-25.75,-27.39,0,*77
1501132080.83,20793,20.0,73190.5,5.83,-25.91,-27.39,0,*7C
1501132082.03,20794,20.0,73188.3,5.83,-26.07,-27.67,0,*7C
1501132083.27,20795,20.0,73188.3,5.81,-26.23,-27.83,0,*73
1501132084.53,20796,20.0,73190.3,5.81,-26.29,-27.83,0,*7A
1501132085.72,20797,20.0,73194.0,5.79,-26.45,-27.93,0,*77
1501132086.92,20798,20.0,73190.8,5.75,-26.39,-27.93,0,*7F
1501132088.17,20799,20.0,73192.0,5.75,-26.33,-27.83,0,*75
1501132089.42,20800,20.0,73188.3,5.77,-26.17,-27.89,0,*74
1501132090.68,20801,20.0,73192.0,5.73,-26.55,-28.25,0,*7E
1501132091.95,20802,20.0,73188.3,5.73,-26.77,-28.43,0,*7D
1501132093.18,20803,20.0,73188.3,5.71,-26.77,-28.31,0,*7B
1501132094.45,20804,20.0,73190.5,5.69,-26.55,-28.25,0,*70
1501132095.65,20805,20.0,73186.8,5.67,-26.65,-28.31,0,*79
1501132096.86,20806,20.0,73190.3,5.67,-26.03,-27.67,0,*76
1501132098.11,20807,20.0,73190.5,5.67,-25.75,-27.35,0,*72
1501132099.35,20808,20.0,73190.0,5.63,-25.81,-27.39,0,*7E
1501132100.6,20809,20.0,73190.5,5.61,-26.39,-28.05,0,*7D
1501132101.85,20810,20.0,73194.3,5.61,-26.39,-27.99,0,*7F
1501132103.07,20811,20.0,73190.8,5.61,-26.03,-27.55,0,*77
1501132104.31,20812,20.0,73194.3,5.57,-26.13,-27.71,0,*76
1501132105.56,20813,20.0,73190.5,5.57,-26.13,-27.71,0,*77